Location: Unspecified
(0.0000°N, 0.0000°E)
Time: 03:10:24
(UTC+00:00)

Envisat - Pass Details

Date: 20 April 2019
Orbit: 764 x 766 km, 98.2° (Epoch: 19 May)

Event Time Altitude Azimuth Distance (km) Brightness Sun altitude
Rises 18:48:42 0° 164° (SSE) 3,231 6.0 -12.2°
Reaches altitude 10° 18:51:01 10° 161° (SSE) 2,303 5.2 -12.7°
Maximum altitude 18:56:04 70° 78° (ENE) 812 2.9 -14.0°
Drops below altitude 10° 19:01:06 10° 355° (N) 2,293 5.7 -15.2°
Sets 19:03:24 0° 353° (N) 3,216 6.5 -15.8°
